SENTINEL-2A

Last updated on Thu Oct 30 2025 00:02:31 GMT+0000 (Coordinated Universal Time)

1 40697U 15028A 25302.51539774 .00000204 00000+0 94416-4 0 9998 2 40697 98.5737 15.6701 0001121 93.3365 266.7946 14.30816609540749
UTC large
Height (km)
Speed (km/s)
/
Latitude / Longitude
Inclination (degrees)
Orbital Period (minutes)
Azimuth
Elevation
Range (km)
Doppler Factor

Next 0 passes for location: London (51.5072 / 0.1276)

Sorry there are no passes over London.